CST,Max TemperatureF,Mean TemperatureF,Min TemperatureF,Max Dew PointF,MeanDew PointF,Min DewpointF,Max Humidity, Mean Humidity, Min Humidity, Max Sea Level PressureIn, Mean Sea Level PressureIn, Min Sea Level PressureIn, Max VisibilityMiles, Mean VisibilityMiles, Min VisibilityMiles, Max Wind SpeedMPH, Mean Wind SpeedMPH, Max Gust SpeedMPH,PrecipitationIn, CloudCover, Events, WindDirDegrees
2013-12-1,61,46,30,32,28,25,89,64,27,30.12,30.03,29.90,10,10,10,6,4,,0.00,0,,236
2013-12-2,69,48,26,31,28,23,89,55,22,29.87,29.73,29.57,10,10,10,14,6,,0.00,0,,247
2013-12-3,73,52,30,31,28,23,85,49,15,29.57,29.49,29.40,10,10,10,18,6,22,0.00,0,,210
2013-12-4,55,40,23,36,20,5,89,63,29,30.17,29.80,29.45,10,10,5,23,15,31,0.00,4,,345
2013-12-5,21,18,14,9,4,-1,79,57,42,30.39,30.30,30.19,10,10,3,24,17,30,0.00,5,Snow,13
2013-12-6,21,14,5,9,3,-4,85,65,43,30.67,30.47,30.26,10,10,8,16,12,21,0.00,6,Snow,18
2013-12-7,19,10,1,10,0,-6,86,63,36,30.69,30.46,30.17,10,8,2,9,5,16,0.00,5,Snow,105
2013-12-8,39,27,14,21,15,9,88,77,47,30.24,30.04,29.88,10,10,8,18,12,22,0.00,5,,162
2013-12-9,18,10,1,11,5,-3,88,70,48,30.46,30.36,30.23,10,10,8,12,7,,0.00,6,,360
2013-12-10,48,24,1,20,6,-3,91,56,13,30.47,30.29,30.13,10,10,6,24,9,33,0.00,0,,206
2013-12-11,37,26,14,18,13,6,78,61,36,30.64,30.52,30.22,10,10,10,17,8,22,0.00,0,,26
2013-12-12,48,37,26,26,18,10,51,41,32,30.56,30.34,30.04,10,10,10,24,13,33,0.00,1,,201
2013-12-13,75,62,48,35,31,26,48,39,23,30.00,29.81,29.62,10,10,10,25,18,36,0.00,3,,218
2013-12-14,,,,,,,,,,30.26,30.18,29.97,10,9,6,20,13,29,0.00,2,,335
2013-12-15,,,,,,,,,,30.25,30.17,30.11,10,10,10,12,7,,0.00,0,,242
2013-12-16,69,52,28,18,16,15,56,30,13,30.19,30.13,30.09,10,10,6,10,6,,0.00,0,,252
2013-12-17,60,42,23,21,18,15,72,47,20,30.37,30.29,30.19,10,10,10,16,6,20,0.00,0,,184
2013-12-18,70,48,26,33,25,19,78,45,17,30.22,29.95,29.68,10,10,10,24,11,32,0.00,0,,204
2013-12-19,66,55,36,36,31,22,79,47,20,29.71,29.60,29.51,10,10,10,21,15,29,0.00,0,,197
2013-12-20,33,25,17,28,15,10,82,65,54,30.03,29.91,29.76,10,10,8,22,14,32,0.00,5,,7
2013-12-21,28,24,17,23,20,14,93,85,58,29.92,29.69,29.54,10,5,0,15,8,,0.14,8,Fog-Rain-Snow,9
2013-12-22,32,22,12,18,14,8,92,76,54,30.37,30.21,29.94,10,10,10,13,8,,0.00,0,,308
2013-12-23,27,18,10,23,18,8,93,87,75,30.59,30.47,30.33,10,7,2,13,5,,0.00,5,,94
2013-12-24,34,28,21,31,27,19,100,91,79,30.49,30.22,30.06,10,4,0,25,11,34,0.00,7,Fog,198
2013-12-25,46,36,23,31,27,20,96,79,44,30.48,30.41,30.31,10,10,6,14,6,,0.00,1,Rain,314
2013-12-26,57,38,19,29,23,17,92,70,26,30.42,30.34,30.24,10,10,10,16,5,,0.00,0,,229
2013-12-27,60,42,23,28,23,14,92,62,16,30.42,30.33,30.22,10,10,10,16,5,,0.00,0,,216
2013-12-28,60,42,25,37,26,20,93,61,21,30.20,29.99,29.83,10,10,6,21,10,28,0.00,0,,206
2013-12-29,37,24,10,36,14,6,93,66,44,30.38,30.25,29.94,10,10,10,30,17,41,0.00,4,,3
2013-12-30,51,30,10,22,15,6,81,63,32,30.39,30.29,30.23,10,10,10,14,7,23,0.00,0,,214
2013-12-31,57,39,21,26,20,16,85,54,19,30.37,30.17,29.98,10,10,10,28,11,36,0.00,0,,194